カタログに戻る

AEROCUBE 16A

運用中科学VLEO
NORAD 59290·PAYLOAD·🇺🇸 United States

打ち上げ Mar 21, 2024 から Wallops Flight Facility

Loading…

次のパス (今後24時間)

TLE

最新Source: Space-Track

元期: Sep 14, 2026, 22:23 UTC

1 59290U 24053C   26257.93321540  .00018137  00000-0  36848-3 0  9990
2 59290  49.9871 227.4730 0003061   7.9234 352.1778 15.46329679134985

AllMySatでAEROCUBE 16Aをリアルタイム追跡

Download on the App Store